User: anonymous
Location: Caltech
(34.1382°N, 118.1253°W)
Time: 20:56:26
(UTC-07:00)
Language:

Aureole 3 Rocket - Orbit

View from above orbital plane
View from above orbital plane
View from above satellite
View from above satellite

Ground track
Ground track

The orbit data is extracted from the following two-line orbital elements,

1 12849U 81094B   14114.08931725  .00001216  00000-0  11582-3 0  8700
2 12849 082.4932 328.1230 0911635 263.3648 086.3068 13.47900143586822
Epoch (UTC): 24 April 2014 02:08:37
Eccentricity: 0.0911635
inclination: 82.4932°
perigee height: 400 km
apogee height: 1760 km
right ascension of ascending node: 328.1230°
argument of perigee: 263.3648°
revolutions per day: 13.47900143
mean anomaly at epoch: 86.3068°
orbit number at epoch: 58682

The dashed part of the orbit path shows where the satellite is in the earth's shadow,  

DLR